This is the latest recevied weather packets stored in our database for station/object PD2BVG. If no packets are shown the sender has not sent any weather packets the latest 1 day(s).
| Time | Temp. | Humidity | Pressure | Rain* | Wind** | Luminosity | Snow |
|---|---|---|---|---|---|---|---|
| 1778025100 | 10° C | 80% | 1010.7 hPa | 0 mm | 2.68 m/s, 0° | 0 W/m² | - |
| 1778025039 | 10° C | 80% | 1010.8 hPa | 0 mm | 2.68 m/s, 0° | 0 W/m² | - |
| 1778024980 | 10° C | 80% | 1010.7 hPa | 0 mm | 2.68 m/s, 350° | 0 W/m² | - |
| 1778024920 | 10° C | 80% | 1010.8 hPa | 0 mm | 2.68 m/s, 0° | 0 W/m² | - |
| 1778024856 | 10° C | 80% | 1010.7 hPa | 0 mm | 2.68 m/s, 358° | 0 W/m² | - |
| 1778024796 | 10° C | 80% | 1010.7 hPa | 0 mm | 2.24 m/s, 351° | 0 W/m² | - |
| 1778024736 | 10° C | 80% | 1010.8 hPa | 0 mm | 3.13 m/s, 333° | 0 W/m² | - |
| 1778024674 | 10° C | 80% | 1010.7 hPa | 0 mm | 3.13 m/s, 0° | 0 W/m² | - |
| 1778024615 | 10° C | 80% | 1010.8 hPa | 0 mm | 3.58 m/s, 355° | 0 W/m² | - |
| 1778024555 | 10° C | 80% | 1010.7 hPa | 0 mm | 3.58 m/s, 0° | 0 W/m² | - |
| 1778024493 | 10° C | 80% | 1010.8 hPa | 0 mm | 3.13 m/s, 0° | 0 W/m² | - |
| 1778024433 | 10° C | 80% | 1010.8 hPa | 0 mm | 3.58 m/s, 337° | 0 W/m² | - |
| 1778024372 | 10° C | 80% | 1010.8 hPa | 0 mm | 2.68 m/s, 0° | 0 W/m² | - |
| 1778024316 | 10° C | 80% | 1010.8 hPa | 0 mm | 2.68 m/s, 354° | 0 W/m² | - |
| 1778024252 | 10° C | 80% | 1010.8 hPa | 0 mm | 3.58 m/s, 0° | 0 W/m² | - |
| 1778024192 | 10° C | 80% | 1010.8 hPa | 0 mm | 3.13 m/s, 344° | 0 W/m² | - |
| 1778024132 | 10° C | 80% | 1010.8 hPa | 0 mm | 3.13 m/s, 8° | 0 W/m² | - |
| 1778024072 | 10° C | 80% | 1010.8 hPa | 0 mm | 3.58 m/s, 13° | 0 W/m² | - |
| 1778024012 | 10° C | 80% | 1010.8 hPa | 0 mm | 3.13 m/s, 25° | 0 W/m² | - |
| 1778023953 | 10° C | 80% | 1010.7 hPa | 0 mm | 3.13 m/s, 326° | 0 W/m² | - |
| 1778023893 | 10° C | 80% | 1010.8 hPa | 0 mm | 3.13 m/s, 343° | 0 W/m² | - |
| 1778023833 | 10° C | 80% | 1010.8 hPa | 0 mm | 3.13 m/s, 16° | 0 W/m² | - |
| 1778023774 | 10° C | 80% | 1010.8 hPa | 0 mm | 3.58 m/s, 354° | 0 W/m² | - |
| 1778023712 | 10° C | 80% | 1010.8 hPa | 0 mm | 3.58 m/s, 0° | 0 W/m² | - |
| 1778023652 | 10° C | 80% | 1010.8 hPa | 0 mm | 4.02 m/s, 0° | 0 W/m² | - |
* Rain latest hour (hover to see other rain measurements)
** Current wind speed in m/s (hover to see current wind gust speed)